Showing default

COSMOS 2553, 51511

Orbit data source: Space-Track

COSMOS 2553, 51511 is a payload satellite owned by VVKO VKS (CIS) in LEO that was launched on Sat, 05 Feb 2022 UTC via a SOYUZ-2-1A launch vehicle from the Plesetsk Missile And Space Complex (PKMTR). Payload-class satellites include a variety of spacecraft equipped with specific instruments for various scientific and technological missions. These include communications satellites like Starlink; space stations such as the ISS; scientific satellites like the Hubble; Earth observation satellites from companies like Planet Labs, Umbra, and HawkEye 360; GPS; miniature CubeSats for education and research; and military/defense satellites.

Loading next visibility...
Identifier
51511, 2022-011A
Orbit
LEO
Country
Flag of CISCIS
Related business
Manufacturer
Resehetnev ISS
Mission
Non-operational Defense Radar Imaging
Bus & Motor
MERIDIAN?, Unknown motor
Mass
~2,000 kg wet, ~2,000 kg dry
Launch date (UTC)
2022-02-05 (4 years ago)
Launch vehicle
SOYUZ-2-1A
Launch site
Plesetsk Missile And Space Complex (PKMTR)
Object type
Payload
Rocket body
Debris
Shape & HBR
Box + 2 Pan, 5.0 m
Radar Cross Section
14.304 m², Large (>1 m²)

Expand to show TLE details & history
Last TLE update: 1 day ago

TLE from 1 day ago
0 COSMOS 2553
1 51511U 22011A   25291.15059696 -.00000036  00000-0 -18498-4 0  9994
2 51511  67.0965   9.4423 0003679 266.5461  93.5061 11.32844521153021
Epoch: 2025-10-18T03:36Z
TLE epoch observation values (Epoch: 2025-10-18T03:36:51.577Z)
Latitude
-0.00002°
Longitude
-71.65835°
Altitude
1,998.308 km
Speed
6.9 km/s
True Right ascension
00h 37m 46s
True Declination
0° 00' 00"
Sunlit
Object was in full shadow at epoch
Visualization orbit readout
Latitude
Unknown
Longitude
Unknown
Altitude
Unknown
Speed
Unknown
Apparent Right ascension
Unknown
Apparent Declination
Unknown
Sunlit
N/A
Visualization observer readout
Local Sidereal Time
01:35:38
Azimuth
Unknown
Elevation
Unknown
Doppler factor
Unknown
Orbital elements
Apogee altitude
1,997.938 km
Perigee altitude
1,991.778 km
Semi-major axis
8,372.995 km
Eccentricity
0.00037
Inclination
67.0965°
RAAN
9.4423°
Arg. of periapsis
266.5461°
True anomaly
93.54818°
Mean anomaly
93.5061°
Eccentric anomaly
93.52714°
Mean motion
2.83284 °/min
Orbital period
127.08 mins
BSTAR
-0.000018498
Loading maneuver chart data...
Computing Atmospheric mass density...
Loading historical data...
Loading historical data...
Loading historical data...
Loading historical data...
Loading historical data...
Loading historical data...
Loading historical data...
Other satellites on launch #11 in the year 2022 (2022-02-05 UTC)

Documentation

Showing up to 5 results
|